User: anonymous   Login
Location: Unspecified
(0.0000°N, 0.0000°E)
Time: 21:52:44
(UTC+00:00)
Language:

STARLINK-30318 - Orbit

View from above orbital plane
View from above orbital plane
View from above satellite
View from above satellite

Ground track
Ground track

The orbit is defined by the following mean orbital elements,

1 57711U          26145.43797904 +.00000000 +00000-0 +42817-4 0 00001
2 57711  43.0064  44.1682 0002041 260.0984  99.9637 15.27585924    02
Epoch (UTC): 25 May 2026 10:30:41
Eccentricity: 0.0002041
inclination: 43.0064°
perigee height: 482 km
apogee height: 484 km
right ascension of ascending node: 44.1682°
argument of perigee: 260.0984°
revolutions per day: 15.27585924
mean anomaly at epoch: 99.9637°

The dashed part of the orbit path shows where the satellite is in the earth's shadow,  

DLR